NSS-9

Last updated on Jan. 28, 2020, 4:41 a.m. UTC

1 33749U 09008A   20027.67449742  .00000068  00000-0  00000+0 0  9990
2 33749   0.0342 315.4145 0002006 343.5714 253.2975  1.00273438 40178
UTC
Height (km)
Latitude
Longitude
Inclination
Orbital Period
UTC large
Height (km)
Speed (km/s)
/
Latitude / Longitude
Inclination (degrees)
Orbital Period (minutes)
Azimuth
Elevation
Range (km)
Doppler Factor
iOS Compass Heading
iOS Angle

Next 30 passes for location: Hong Kong

Rise time Rise Azimuth (degrees) Set time Set Azimuth (degrees) Duration Max altitude (degrees)

No matching passes for this satellites